HG8LXL-2 Weather Reports


time (UTC)temp
C
wind
direction
speed
KPH
gust
KPH
rain 1hr
cm
rain 24hr
cm
rain mn
cm
humidity
%
barometer
mb
20260901141051 32 0.0 0.0 0.00 0.00 0.00 17 1014.3
20260901140553 33 0.0 0.0 0.00 0.00 0.00 16 1014.2
20260901140051 33 0.0 0.0 0.00 0.00 0.00 16 1014.2
20260901135551 33 0.0 0.0 0.00 0.00 0.00 16 1014.3
20260901135051 33 0.0 0.0 0.00 0.00 0.00 16 1014.3
20260901134551 34 0.0 0.0 0.00 0.00 0.00 15 1014.3
20260901134051 33 0.0 0.0 0.00 0.00 0.00 15 1014.4
20260901133551 33 0.0 0.0 0.00 0.00 0.00 16 1014.4
20260901133051 33 0.0 0.0 0.00 0.00 0.00 15 1014.4
20260901132551 32 0.0 0.0 0.00 0.00 0.00 15 1014.4
20260901132051 33 0.0 0.0 0.00 0.00 0.00 16 1014.4
20260901131551 33 0.0 0.0 0.00 0.00 0.00 16 1014.5
20260901131051 33 0.0 0.0 0.00 0.00 0.00 15 1014.5
20260901130552 33 0.0 0.0 0.00 0.00 0.00 14 1014.6
20260901130051 33 0.0 0.0 0.00 0.00 0.00 16 1014.5
20260901125555 33 0.0 0.0 0.00 0.00 0.00 16 1014.6
20260901125051 33 0.0 0.0 0.00 0.00 0.00 15 1014.8
20260901124551 33 0.0 0.0 0.00 0.00 0.00 17 1014.7
20260901124051 33 0.0 0.0 0.00 0.00 0.00 16 1014.7
20260901123551 33 0.0 0.0 0.00 0.00 0.00 15 1014.7
20260901123052 33 0.0 0.0 0.00 0.00 0.00 15 1014.8
20260901122551 33 0.0 0.0 0.00 0.00 0.00 17 1014.7
20260901122051 33 0.0 0.0 0.00 0.00 0.00 16 1014.8
20260901121551 33 0.0 0.0 0.00 0.00 0.00 16 1014.8
20260901121051 33 0.0 0.0 0.00 0.00 0.00 17 1014.9
20260901120554 33 0.0 0.0 0.00 0.00 0.00 16 1015.0
20260901120051 33 0.0 0.0 0.00 0.00 0.00 16 1014.8
20260901115551 33 0.0 0.0 0.00 0.00 0.00 17 1015.0
20260901115051 32 0.0 0.0 0.00 0.00 0.00 18 1015.1
20260901114551 32 0.0 0.0 0.00 0.00 0.00 18 1015.1
20260901114051 33 0.0 0.0 0.00 0.00 0.00 18 1015.0
20260901113554 32 0.0 0.0 0.00 0.00 0.00 18 1015.1
20260901113051 33 0.0 0.0 0.00 0.00 0.00 19 1015.1
20260901112551 32 0.0 0.0 0.00 0.00 0.00 20 1015.2
20260901112052 32 0.0 0.0 0.00 0.00 0.00 20 1015.2
20260901111551 32 0.0 0.0 0.00 0.00 0.00 23 1015.2
20260901111051 32 0.0 0.0 0.00 0.00 0.00 24 1015.1
20260901110551 32 0.0 0.0 0.00 0.00 0.00 22 1015.1
20260901110053 32 0.0 0.0 0.00 0.00 0.00 25 1015.2
20260901105551 32 0.0 0.0 0.00 0.00 0.00 24 1015.2
20260901105051 32 0.0 0.0 0.00 0.00 0.00 24 1015.2
20260901104559 31 0.0 0.0 0.00 0.00 0.00 25 1015.3
20260901104051 31 0.0 0.0 0.00 0.00 0.00 25 1015.2
20260901103551 31 0.0 0.0 0.00 0.00 0.00 25 1015.3
20260901103051 31 0.0 0.0 0.00 0.00 0.00 25 1015.4
20260901102551 31 0.0 0.0 0.00 0.00 0.00 25 1015.4
20260901102051 31 0.0 0.0 0.00 0.00 0.00 26 1015.3
20260901101551 31 0.0 0.0 0.00 0.00 0.00 26 1015.3
20260901101051 31 0.0 0.0 0.00 0.00 0.00 27 1015.3
20260901100552 30 0.0 0.0 0.00 0.00 0.00 27 1015.4
20260901100051 30 0.0 0.0 0.00 0.00 0.00 28 1015.5
20260901095551 30 0.0 0.0 0.00 0.00 0.00 28 1015.5
20260901095051 30 0.0 0.0 0.00 0.00 0.00 30 1015.5
20260901094559 30 0.0 0.0 0.00 0.00 0.00 29 1015.5
20260901094051 30 0.0 0.0 0.00 0.00 0.00 30 1015.5
20260901093551 30 0.0 0.0 0.00 0.00 0.00 31 1015.5
20260901093051 29 0.0 0.0 0.00 0.00 0.00 34 1015.6
20260901092556 29 0.0 0.0 0.00 0.00 0.00 33 1015.6
20260901092051 29 0.0 0.0 0.00 0.00 0.00 33 1015.6
20260901091559 28 0.0 0.0 0.00 0.00 0.00 33 1015.6
20260901091051 29 0.0 0.0 0.00 0.00 0.00 32 1015.5
20260901090552 29 0.0 0.0 0.00 0.00 0.00 31 1015.5
20260901090051 30 0.0 0.0 0.00 0.00 0.00 28 1015.5
20260901085551 31 0.0 0.0 0.00 0.00 0.00 28 1015.4
20260901085053 30 0.0 0.0 0.00 0.00 0.00 32 1015.6
20260901084551 29 0.0 0.0 0.00 0.00 0.00 30 1015.5
20260901084051 29 0.0 0.0 0.00 0.00 0.00 30 1015.5
20260901083551 30 0.0 0.0 0.00 0.00 0.00 31 1015.5
20260901083051 29 0.0 0.0 0.00 0.00 0.00 32 1015.4
20260901082551 29 0.0 0.0 0.00 0.00 0.00 32 1015.4
20260901082051 28 0.0 0.0 0.00 0.00 0.00 33 1015.3
20260901081551 29 0.0 0.0 0.00 0.00 0.00 34 1015.4
20260901081058 29 0.0 0.0 0.00 0.00 0.00 33 1015.3
20260901080551 30 0.0 0.0 0.00 0.00 0.00 32 1015.3
20260901080051 30 0.0 0.0 0.00 0.00 0.00 34 1015.3
20260901075609 29 0.0 0.0 0.00 0.00 0.00 34 1015.2
20260901075051 28 0.0 0.0 0.00 0.00 0.00 38 1015.3
20260901074551 28 0.0 0.0 0.00 0.00 0.00 37 1015.2
20260901074051 28 0.0 0.0 0.00 0.00 0.00 39 1015.2
20260901073604 28 0.0 0.0 0.00 0.00 0.00 40 1015.2
20260901073051 28 0.0 0.0 0.00 0.00 0.00 40 1015.2
20260901072551 28 0.0 0.0 0.00 0.00 0.00 41 1015.2
20260901072130 28 0.0 0.0 0.00 0.00 0.00 41 1015.1
20260901071551 28 0.0 0.0 0.00 0.00 0.00 41 1015.0
20260901071051 27 0.0 0.0 0.00 0.00 0.00 43 1015.1
20260901070551 27 0.0 0.0 0.00 0.00 0.00 43 1014.9
20260901070051 27 0.0 0.0 0.00 0.00 0.00 44 1014.8
20260901065551 27 0.0 0.0 0.00 0.00 0.00 45 1014.7
20260901065051 27 0.0 0.0 0.00 0.00 0.00 46 1014.7
20260901064556 27 0.0 0.0 0.00 0.00 0.00 45 1014.6
20260901064051 27 0.0 0.0 0.00 0.00 0.00 46 1014.6
20260901063551 27 0.0 0.0 0.00 0.00 0.00 46 1014.5
20260901063051 26 0.0 0.0 0.00 0.00 0.00 47 1014.5
20260901062551 26 0.0 0.0 0.00 0.00 0.00 49 1014.4
20260901062105 26 0.0 0.0 0.00 0.00 0.00 51 1014.4
20260901061551 25 0.0 0.0 0.00 0.00 0.00 52 1014.3
20260901061051 25 0.0 0.0 0.00 0.00 0.00 52 1014.4
20260901060551 25 0.0 0.0 0.00 0.00 0.00 52 1014.2
20260901060054 25 0.0 0.0 0.00 0.00 0.00 54 1014.2
20260901055551 25 0.0 0.0 0.00 0.00 0.00 55 1014.2
20260901055051 24 0.0 0.0 0.00 0.00 0.00 57 1014.1
20260901054552 23 0.0 0.0 0.00 0.00 0.00 57 1014.1
20260901054051 23 0.0 0.0 0.00 0.00 0.00 58 1014.1
20260901053551 23 0.0 0.0 0.00 0.00 0.00 59 1014.0
20260901053052 22 0.0 0.0 0.00 0.00 0.00 62 1014.1
20260901052605 22 0.0 0.0 0.00 0.00 0.00 63 1014.0
20260901052051 22 0.0 0.0 0.00 0.00 0.00 64 1014.0
20260901051550 22 0.0 0.0 0.00 0.00 0.00 67 1014.0
20260901051054 22 0.0 0.0 0.00 0.00 0.00 68 1014.0
20260901050551 22 0.0 0.0 0.00 0.00 0.00 68 1013.8
20260901050050 22 0.0 0.0 0.00 0.00 0.00 67 1013.7
20260901045551 23 0.0 0.0 0.00 0.00 0.00 65 1013.5
20260901045059 23 0.0 0.0 0.00 0.00 0.00 65 1013.5
20260901044551 23 0.0 0.0 0.00 0.00 0.00 61 1013.5
20260901044055 23 0.0 0.0 0.00 0.00 0.00 61 1013.4
20260901043551 23 0.0 0.0 0.00 0.00 0.00 62 1013.4
20260901043050 23 0.0 0.0 0.00 0.00 0.00 63 1013.4
20260901042555 23 0.0 0.0 0.00 0.00 0.00 62 1013.3
20260901042051 23 0.0 0.0 0.00 0.00 0.00 63 1013.1
20260901041559 23 0.0 0.0 0.00 0.00 0.00 61 1013.1
20260901041050 23 0.0 0.0 0.00 0.00 0.00 62 1012.9
20260901040551 22 0.0 0.0 0.00 0.00 0.00 64 1013.0
20260901040051 23 0.0 0.0 0.00 0.00 0.00 61 1012.9
20260901035550 23 0.0 0.0 0.00 0.00 0.00 64 1012.9
20260901035051 23 0.0 0.0 0.00 0.00 0.00 65 1012.9
20260901034553 22 0.0 0.0 0.00 0.00 0.00 67 1012.9
20260901034050 22 0.0 0.0 0.00 0.00 0.00 68 1012.9
20260901033550 22 0.0 0.0 0.00 0.00 0.00 68 1012.8
20260901033059 22 0.0 0.0 0.00 0.00 0.00 67 1012.8
20260901032551 22 0.0 0.0 0.00 0.00 0.00 69 1012.8
20260901032050 22 0.0 0.0 0.00 0.00 0.00 69 1012.8
20260901031552 22 0.0 0.0 0.00 0.00 0.00 69 1012.8
20260901031050 23 0.0 0.0 0.00 0.00 0.00 66 1012.7
20260901030550 23 0.0 0.0 0.00 0.00 0.00 67 1012.5
20260901030050 23 0.0 0.0 0.00 0.00 0.00 67 1012.6
20260901025550 23 0.0 0.0 0.00 0.00 0.00 64 1012.5
20260901025050 23 0.0 0.0 0.00 0.00 0.00 65 1012.6
20260901024552 22 0.0 0.0 0.00 0.00 0.00 69 1012.7
20260901024051 22 0.0 0.0 0.00 0.00 0.00 70 1012.7
20260901023551 22 0.0 0.0 0.00 0.00 0.00 67 1012.8
20260901023050 23 0.0 0.0 0.00 0.00 0.00 63 1012.8
20260901022550 23 0.0 0.0 0.00 0.00 0.00 64 1012.8
20260901022050 22 0.0 0.0 0.00 0.00 0.00 68 1013.0
20260901021550 22 0.0 0.0 0.00 0.00 0.00 66 1012.9
20260901021050 23 0.0 0.0 0.00 0.00 0.00 61 1012.8
20260901020552 22 0.0 0.0 0.00 0.00 0.00 66 1013.0
20260901020050 22 0.0 0.0 0.00 0.00 0.00 67 1013.0
20260901015553 22 0.0 0.0 0.00 0.00 0.00 66 1013.1
20260901015050 22 0.0 0.0 0.00 0.00 0.00 66 1013.1
20260901014551 23 0.0 0.0 0.00 0.00 0.00 65 1013.1
20260901014050 23 0.0 0.0 0.00 0.00 0.00 64 1012.9
20260901013550 23 0.0 0.0 0.00 0.00 0.00 63 1012.6
20260901013050 23 0.0 0.0 0.00 0.00 0.00 62 1012.4
20260901012550 23 0.0 0.0 0.00 0.00 0.00 61 1012.5
20260901012050 23 0.0 0.0 0.00 0.00 0.00 61 1012.7
20260901011550 23 0.0 0.0 0.00 0.00 0.00 62 1013.0
20260901011050 23 0.0 0.0 0.00 0.00 0.00 62 1013.1
20260901010550 23 0.0 0.0 0.00 0.00 0.00 62 1013.3
20260901010050 23 0.0 0.0 0.00 0.00 0.00 62 1013.4
20260901005550 23 0.0 0.0 0.00 0.00 0.00 64 1013.5
20260901005050 23 0.0 0.0 0.00 0.00 0.00 62 1013.8
20260901004556 24 0.0 0.0 0.00 0.00 0.00 64 1013.6
20260901004050 23 0.0 0.0 0.00 0.00 0.00 66 1013.4
20260901003550 23 0.0 0.0 0.00 0.00 0.00 69 1013.5
20260901003050 23 0.0 0.0 0.00 0.00 0.00 66 1013.3
20260901002550 23 0.0 0.0 0.00 0.00 0.00 67 1013.6
20260901002050 23 0.0 0.0 0.00 0.00 0.00 67 1013.8
20260901001550 23 0.0 0.0 0.00 0.00 0.00 66 1014.0
20260901001050 25 0.0 0.0 0.00 0.00 0.00 60 1014.0
20260901000551 25 0.0 0.0 0.00 0.00 0.00 60 1014.0
20260901000050 25 0.0 0.0 0.00 0.00 0.00 60 1014.3
20260831235556 25 0.0 0.0 0.00 0.00 0.00 56 1014.0
20260831235050 21 0.0 0.0 0.00 0.00 0.00 81 1014.4
20260831234553 22 0.0 0.0 0.00 0.00 0.00 62 1013.7